Location: Spruce Knob
(38.6995°N, 79.5330°W)
Time: 03:18:44
(UTC-05:00)

Tiros 1 despin weight - Visible Passes

Search period start: 28 January 2022 00:00
Search period end: 07 February 2022 00:00
Orbit: 592 x 641 km, 48.2° (Epoch: 28 January)

Date Brightness Start Highest point End Pass type
(mag) Time Alt. Az. Time Alt. Az. Time Alt. Az.
28 Jan ? 18:44:44 10° NW 18:48:31 25° N 18:50:42 18° NE visible
28 Jan ? 20:26:32 10° NW 20:27:44 17° NW 20:27:44 17° NW visible
29 Jan ? 19:01:03 10° NW 19:04:58 27° N 19:06:12 24° NE visible
29 Jan ? 20:42:32 10° NW 20:43:14 14° NW 20:43:14 14° NW visible
30 Jan ? 19:17:10 10° NW 19:21:22 33° NNE 19:21:44 33° NNE visible
30 Jan ? 20:58:35 10° WNW 20:58:46 11° WNW 20:58:46 11° WNW visible
31 Jan ? 19:33:11 10° NW 19:37:20 47° N 19:37:20 47° N visible
01 Feb ? 18:07:47 10° NW 18:11:46 29° NNE 18:15:48 10° ENE visible
01 Feb ? 19:49:11 10° NW 19:53:02 60° NW 19:53:02 60° NW visible
02 Feb ? 18:23:50 10° NW 18:28:07 38° NNE 18:31:47 13° E visible
02 Feb ? 20:05:18 10° WNW 20:08:52 47° W 20:08:52 47° W visible
03 Feb ? 18:39:50 10° NW 18:44:21 57° NNE 18:47:45 17° ESE visible
03 Feb ? 20:21:40 10° WNW 20:24:50 28° WSW 20:24:50 28° WSW visible
04 Feb ? 18:55:51 10° WNW 19:00:27 85° SW 19:03:54 18° SE visible
04 Feb ? 20:38:44 10° W 20:40:59 15° WSW 20:40:59 15° WSW visible
05 Feb ? 19:12:02 10° WNW 19:16:25 45° SW 19:20:17 13° SSE visible
06 Feb ? 19:28:35 10° W 19:32:15 24° SW 19:35:56 10° S visible
